{"data":{"norad_id":69520,"intl_designator":"2026-133N","name":"STARLINK-37510","alt_names":[],"object_type":"PAYLOAD","status":"ACTIVE","operator":null,"country":"US","launch_date":"2026-06-12","launch_site_code":"AFETR","launch_vehicle":null,"mission":null,"orbit_class":"UNKNOWN","rcs_meters":null,"size_class":null,"mass_kg":null,"dimensions":null,"purposes":["comms"],"wikipedia_slug":null,"has_3d_model":false,"image_url":null,"decayed_at":null,"tle_current":{"epoch":"2026-09-20T04:08:41.979840Z","epoch_age_seconds":53701,"freshness":"FRESH","line1":"1 69520U 26133N   26263.17270810  .00013852  00000+0  42054-3 0  9998","line2":"2 69520  53.1568 231.2635 0001266  85.1313 274.9834 15.34386181 16712","mean_motion":15.34386181,"eccentricity":0.0001266,"inclination_deg":53.1568,"raan_deg":231.2635,"arg_perigee_deg":85.1313,"mean_anomaly_deg":274.9834,"bstar":0.00042054,"rev_number":1671,"period_min":93.848603293697,"perigee_km":461.8782579213,"apogee_km":463.61036906988,"semimajor_km":6840.8813134956,"source":"CELESTRAK","updated_at":"2026-09-20T09:00:44.212801Z"}}}